sat.trackr.live / text

‹ back to catalog

STARLINK-32253

NORAD 60733 · 2024-152P

PAYLOAD ACTIVE UNKNOWN

§ Identity

Operator
Country
US
Launch date
2024-08-28
Launch site
AFETR
Launch vehicle
Mass (kg)
RCS (m²)

Purposes: comms

External: N2YO · Heavens-Above · Gunter

§ Orbital elements

Epoch: 2026-05-25T01:18:06.031008Z

Period
94.11 min
Inclination
53.1610°
Eccentricity
0.0001049
Mean motion
15.30195993 rev/d
Perigee alt
474.5 km
Apogee alt
475.9 km
Semi-major
6,853.4 km
B*
3.7615e-5
RAAN
273.6401°
Arg perigee
90.8806°
Mean anomaly
269.2315°
Rev number
9,849

§ Raw data

STARLINK-322531 60733U 24152P   26145.05423647  .00000755  00000+0  37615-4 0  99942 60733  53.1610 273.6401 0001049  90.8806 269.2315 15.30195993 98498

JSON: /api/v1/satellites/60733 · /tle

For live sub-satellite position, see the globe view (requires WebGL).

§ Visibility from observer

Set your observer location to see the next 7 days of passes ≥ 10°. The values pass through the URL so the page stays shareable.

No JS? Fill the form by hand. The geolocation button needs JavaScript.